Location: Mesa Vista Observatory
(35.5777°N, 105.6987°W)
Time: 04:48:02
(UTC-06:00)

Tiros 1 despin weight - All Passes

Search period start: 26 September 2020 00:00
Search period end: 06 October 2020 00:00
Orbit: 593 x 642 km, 48.2° (Epoch: 26 September)

Date Brightness Start Highest point End Pass type
(mag) Time Alt. Az. Time Alt. Az. Time Alt. Az.
26 Sep - 12:06:23 10° SSW 12:10:23 33° SE 12:14:26 10° ENE daylight
26 Sep - 13:47:32 10° WSW 13:51:50 43° NNW 13:56:12 10° NE daylight
26 Sep - 15:31:06 10° NW 15:34:17 18° N 15:37:30 10° NE daylight
26 Sep - 17:13:53 10° NW 17:17:11 19° NNE 17:20:30 10° ENE daylight
26 Sep - 18:55:05 10° NW 18:59:35 48° NNE 19:04:06 10° ESE daylight
26 Sep - 20:36:55 10° WNW 20:41:02 31° SW 20:45:09 10° SSE visible
27 Sep - 12:22:15 10° SW 12:26:40 70° SE 12:31:11 10° ENE daylight
27 Sep - 14:04:39 10° W 14:08:32 28° NNW 14:12:29 10° NE daylight
27 Sep - 15:48:20 10° NW 15:51:16 17° N 15:54:13 10° NE daylight
27 Sep - 17:30:17 10° NW 17:34:04 24° NNE 17:37:53 10° ENE daylight
27 Sep - 19:11:27 10° NW 19:16:07 87° NE 19:20:48 10° SE visible
27 Sep - 20:54:32 10° W 20:57:12 15° SW 20:59:53 10° SSW visible
28 Sep - 10:58:33 10° S 11:01:55 21° SE 11:05:19 10° E daylight
28 Sep - 12:38:44 10° WSW 12:43:08 61° NNW 12:47:38 10° NE daylight
28 Sep - 14:22:00 10° WNW 14:25:23 20° NNW 14:28:49 10° NE daylight
28 Sep - 16:05:12 10° NW 16:08:15 17° N 16:11:20 10° NE daylight
28 Sep - 17:46:35 10° NW 17:50:50 36° NNE 17:55:08 10° E daylight
28 Sep - 19:28:02 10° WNW 19:32:30 47° SW 19:36:59 10° SSE visible
29 Sep - 11:13:56 10° SSW 11:18:08 45° SE 11:22:25 10° ENE daylight
29 Sep - 12:55:39 10° W 12:59:46 35° NNW 13:03:57 10° NE daylight
29 Sep - 14:39:20 10° NW 14:42:20 17° N 14:45:22 10° NE daylight
29 Sep - 16:21:44 10° NW 16:25:12 21° NNE 16:28:41 10° ENE daylight
29 Sep - 18:02:53 10° NW 18:07:28 60° NNE 18:12:04 10° ESE daylight
29 Sep - 19:45:04 10° W 19:48:44 23° SW 19:52:26 10° S visible
30 Sep - 09:51:20 10° SSE 09:53:31 14° SE 09:55:43 10° E daylight
30 Sep - 11:30:05 10° SW 11:34:30 88° NW 11:39:01 10° NE daylight
30 Sep - 13:12:53 10° WNW 13:16:32 24° NNW 13:20:14 10° NE daylight
30 Sep - 14:56:26 10° NW 14:59:20 16° N 15:02:15 10° NE daylight
30 Sep - 16:38:05 10° NW 16:42:03 28° NNE 16:46:02 10° E daylight
30 Sep - 18:19:19 10° WNW 18:23:56 72° SW 18:28:34 10° SE daylight
30 Sep - 20:03:50 10° WSW 20:04:52 11° SW 20:05:53 10° SW visible
01 Oct - 10:05:51 10° SSW 10:09:39 29° SE 10:13:30 10° ENE daylight
01 Oct - 11:46:45 10° WSW 11:51:02 47° NNW 11:55:24 10° NE daylight
01 Oct - 13:30:15 10° NW 13:33:25 18° N 13:36:38 10° NE daylight
01 Oct - 15:13:08 10° NW 15:16:18 18° N 15:19:29 10° NE daylight
01 Oct - 16:54:22 10° NW 16:58:44 43° NNE 17:03:10 10° ESE daylight
01 Oct - 18:36:03 10° WNW 18:40:16 35° SW 18:44:29 10° SSE daylight
02 Oct - 10:21:36 10° SW 10:25:56 61° SE 10:30:20 10° ENE daylight
02 Oct - 12:03:49 10° W 12:07:43 29° NNW 12:11:41 10° NE daylight
02 Oct - 13:47:31 10° NW 13:50:24 16° N 13:53:17 10° NE daylight
02 Oct - 15:29:34 10° NW 15:33:12 23° NNE 15:36:53 10° ENE daylight
02 Oct - 17:10:42 10° NW 17:15:18 78° NE 17:19:57 10° ESE daylight
02 Oct - 18:53:26 10° W 18:56:27 17° SW 18:59:27 10° S daylight
03 Oct - 08:58:08 10° S 09:01:12 19° SE 09:04:18 10° E daylight
03 Oct - 10:37:59 10° WSW 10:42:22 68° NW 10:46:50 10° NE daylight
03 Oct - 12:21:07 10° WNW 12:24:32 21° NNW 12:28:00 10° NE daylight
03 Oct - 14:04:27 10° NW 14:07:22 17° N 14:10:20 10° NE daylight
03 Oct - 15:45:52 10° NW 15:49:59 33° NNE 15:54:10 10° E daylight
03 Oct - 17:27:13 10° WNW 17:31:43 54° SW 17:36:14 10° SE daylight
04 Oct - 09:13:19 10° SSW 09:17:25 39° SE 09:21:33 10° ENE daylight
04 Oct - 10:54:50 10° W 10:58:57 38° NNW 11:03:09 10° NE daylight
04 Oct - 12:38:29 10° NW 12:41:28 17° N 12:44:28 10° NE daylight
04 Oct - 14:21:01 10° NW 14:24:20 19° NNE 14:27:40 10° ENE daylight
04 Oct - 16:02:09 10° NW 16:06:38 54° NNE 16:11:10 10° ESE daylight
04 Oct - 17:44:09 10° WNW 17:47:59 26° SW 17:51:49 10° S daylight
05 Oct - 07:51:18 10° SSE 07:52:49 12° SE 07:54:19 10° ESE daylight
05 Oct - 09:29:22 10° SW 09:33:45 83° SE 09:38:13 10° NE daylight
05 Oct - 11:12:01 10° WNW 11:15:41 25° NNW 11:19:25 10° NE daylight
05 Oct - 12:55:39 10° NW 12:58:27 16° N 13:01:17 10° NE daylight
05 Oct - 14:37:22 10° NW 14:41:11 26° NNE 14:45:02 10° ENE daylight
05 Oct - 16:18:33 10° NW 16:23:07 81° SW 16:27:44 10° SE daylight
05 Oct - 18:02:17 10° WSW 18:04:07 12° SW 18:05:58 10° SSW daylight
